Weather in Örebro

Sweden     59°16′48″N   15°12′30″E
temp.,
°C
wind,
m/s
gust,
m/s
humid.,
%
clouds,
%
prec.,
mm/h
press.,
hPa
HPBL,
m
24 july, sat
sat2423:00+14ssw11620 0.0 101711
02:00+12sw11661 0.0 101711
05:00+12wsw11694 0.0 101710
08:00+18w01505 0.0 1017231
11:00+25ssw11355 0.0 10171049
14:00+27s113046 0.0 10161892
17:00+27sse123030 0.0 10151882
20:00+23sse22497 0.0 101435
25 july, sun
sun2523:00+17s11625 0.0 101612
02:00+15ssw11795 0.0 101614
05:00+14sw11874 0.0 101611
08:00+21sw12640 0.0 1017273
11:00+26s23450 0.0 10171495
14:00+28se34329 0.0 10162474
17:00+28se4431100 0.0 10162410
20:00+24se484536 0.0 1016463
26 july, mon
mon2623:00+17sse236887 0.0 101861
02:00+14ese1184100 0.0 101811
05:00+13ene119648 0.0 101812
08:00+19e246993 0.0 1018413
11:00+24e354591 0.0 10171049
14:00+28e4636100 0.0 10152478
17:00+26ese474870 0.0 10151516
20:00+23sse486656 0.1 1015994
27 july, tue
tue2723:00+19ene2590100 0.2 1015127
02:00+18ene2889100 0.3 1014291
05:00+17ene3698100 1.3 1013200
08:00+18e3897100 2.6 1012348
11:00+21se3691100 1.6 1011618
14:00+20se3492100 3.7 1010482
17:00+22wsw138498 1.8 1010626
20:00+20sw23895 4.1 100966
28 july, wed
wed2823:00+17wsw23950 0.1 101047
02:00+16wsw259714 0.1 101094
05:00+15wsw249814 0.0 100998
08:00+18wsw359199 0.0 1009479
11:00+22sw3557100 0.0 10081258
14:00+24wsw4649100 0.0 10071493
17:00+24wsw464899 0.0 10061439
20:00+20wsw23659 0.0 100590